Location: Im Fang
(46.6019°N, 7.2397°E)
Time: 23:51:29
(UTC+00:00)

Envisat - Visible Passes

Search period start: 05 March 2021 00:00
Search period end: 15 March 2021 00:00
Orbit: 764 x 766 km, 98.1° (Epoch: 05 March)

Date Brightness Start Highest point End Pass type
(mag) Time Alt. Az. Time Alt. Az. Time Alt. Az.
05 Mar 6.1 03:48:34 10° ENE 03:50:56 13° E 03:53:19 10° ESE visible
05 Mar 3.0 05:25:31 10° NNE 05:30:38 85° WNW 05:35:43 10° SSW visible
06 Mar 4.2 04:48:50 10° NNE 04:53:45 46° E 04:58:36 10° S visible
06 Mar 6.4 17:47:58 10° WSW 17:50:40 14° W 17:53:22 10° NW visible
07 Mar 5.5 04:12:42 10° NE 04:16:39 22° E 04:20:35 10° SE visible
08 Mar 6.4 03:38:47 10° ENE 03:39:21 10° E 03:39:54 10° E visible
08 Mar 3.2 05:14:05 10° NNE 05:19:12 78° ESE 05:24:17 10° S visible
09 Mar 4.7 04:37:32 10° NNE 04:42:15 37° E 04:46:56 10° SSE visible
10 Mar 5.9 04:01:39 10° NE 04:05:06 18° E 04:08:31 10° SE visible
11 Mar 3.6 05:02:42 10° NNE 05:07:45 62° E 05:12:47 10° S visible
11 Mar 6.8 18:04:19 10° W 18:04:51 10° W 18:05:23 10° W visible
12 Mar 5.1 04:26:18 10° NNE 04:30:45 30° E 04:35:10 10° SSE visible
13 Mar 6.0 03:50:49 10° NE 03:53:31 14° E 03:56:14 10° ESE visible
14 Mar 4.1 04:51:20 10° NNE 04:56:17 50° E 05:01:13 10° S visible
